Сакена Сейфуллина

Казахстан     48°51′15″N   72°50′00″E
темп.,
°C
ветер,
м/с
пор.,
м/с
влажн.,
%
обл.,
%
осадки,
мм/ч
давл.,
гПа
погр.,
м
25 февраля, чт
чт2500:00−23ююз61596100 0.1 1023661
03:00−22ююз71595100 0.1 10231071
06:00−21зюз81498100 0.4 10241215
09:00−23зюз101996100 0.3 10261432
12:00−23зюз121689100 0.4 10271162
15:00−23зюз101490100 0.1 1030982
18:00−25зюз81495100 0.1 1034750
21:00−26зюз61398100 0.1 1037516
26 февраля, пт
пт2600:00−29юз47100100 0.1 1040143
03:00−31юз34100100 0.0 104257
06:00−31ююз23100100 0.1 104320
09:00−30ю3399100 0.0 104445
12:00−25ююз3592100 0.0 1043319
15:00−22юз3588100 0.0 1042551
18:00−25юз2296100 0.0 104120
21:00−28ююв339562 0.0 104319
27 февраля, сб
сб2700:00−29ююв339131 0.0 104222
03:00−29юв339040 0.0 104121
06:00−26юв338669 0.0 104031
09:00−23юв3386100 0.0 103983
12:00−18ююв4585100 0.0 1037262
15:00−14ю4684100 0.0 1035554
18:00−16ю348895 0.0 103655
21:00−20ююв568735 0.0 103679
28 февраля, вс
вс2800:00−18ююв7137956 0.0 1035220
03:00−16ююв81586100 0.0 1032323
06:00−13ююв101681100 0.0 1029400
09:00−11ю101788100 0.3 1026649
12:00−6ююз111793100 2.3 1024771
15:00−4ююз111789100 1.6 1022779
18:00−4юз91694100 2.6 1021775
21:00−4ююз91594100 1.3 1021638
1 марта, пн
пн100:00−5ююз91693100 2.1 1021627
03:00−5ююз71686100 0.5 1020699
06:00−4ююз61583100 0.6 1020665
09:00−5ююз71494100 0.6 1020637
12:00−3юз91495100 1.7 1019690
15:00−2юз91489100 0.7 1018772
18:00−3юз81394100 1.3 1019652
21:00−4юз61296100 0.5 1020474